Location: Augsburg
(48.3836°N, 10.8929°E)
Time: 16:19:09
(UTC+02:00)

ISS - Pass Details

Date: 19 May 2021
Orbit: 417 x 422 km, 51.6° (Epoch: 13 June)

Event Time Altitude Azimuth Distance (km) Brightness Sun altitude
Rises 22:04:59 0° 255° (WSW) 2,359 0.5 -9.8°
Reaches altitude 10° 22:07:05 10° 258° (WSW) 1,498 -0.5 -10.1°
Maximum altitude 22:10:26 70° 342° (NNW) 450 -3.4 -10.5°
Drops below altitude 10° 22:13:49 10° 67° (ENE) 1,505 -1.1 -10.8°
Sets 22:15:55 0° 70° (ENE) 2,372 -0.2 -11.1°
